Showing default

SINOD-D 1, 40974

Orbit data source: Space-Track

SINOD-D 1, 40974 is a payload satellite owned by SRI (US) in LEO that was launched on Thu, 08 Oct 2015 UTC via an ATLAS V 401 launch vehicle from the Air Force Western Test Range (AFWTR). Payloads include a variety of satellites, spacecraft, and rockets equipped with specific instruments for various scientific and technological missions. These include communications satellites like Starlink; space stations such as the ISS; scientific satellites like the Hubble; Earth observation satellites from companies like Planet Labs, Umbra, and HawkEye 360; GPS; miniature CubeSats for education and research; and military/defense satellites.

Loading next visibility...
SINOD-D 1 details
Identifier
40974, 2015-058L
Orbit
LEO
Last TLE update21 hours ago
Origin
Flag of USSRI (US)
ManufacturerSRI
MissionOperational Commercial Technology
Bus & MotorCUBESAT 2U, Unknown motor
Mass2 kg wet, 2 kg dry
Launch date (UTC)
2015-10-08 (9 years ago)
Launch vehicle
ATLAS V 401
Launch site
Air Force Western Test Range (AFWTR)
Object type
Payload
Rocket body
Debris
Shape & HBRBox, 0.2 m
Radar Cross Section0.040 m², Small (<0.1 m²)

Expand to show TLE details & history

TLE from 21 hours ago
0 SINOD-D 1
1 40974U 15058L   24360.59132473  .00029694  00000-0  19029-2 0  9995
2 40974  64.7657  94.5350 0152321 247.6700 110.8211 14.99277402 34373
Epoch: 2024-12-25T14:11Z
Definitive object data (Epoch: 2024-12-25T14:11:30.456Z)
Latitude-0.00006°
Longitude147.0752°
Altitude610.156 km
Speed7.533 km/s
True Right ascension06h 18m 08s
True Declination0° 00' 00"
Sunlit
Object was in full shadow at TLE epoch
Visualization TLE readout
Latitude64.43069°
Longitude-137.26056°
Altitude679.678 km
Speed7.469 km/s
Apparent Right ascension21h 47m 42s
Apparent Declination49° 28' 49"
Sunlit
Object is in full shadow
Visualization observer readout
Local Sidereal Time10:44:44
Azimuth9.209° NNE
Elevation0.276°
Doppler factor1
Orbital elements
Apogee altitude673.49 km
Perigee altitude461.891 km
Semi-major axis6,945.827 km
Eccentricity0.0152321
Inclination64.7657°
RAAN94.535°
Arg. of periapsis247.67°
True anomaly112.4414°
Mean anomaly110.8211°
Eccentric anomaly111.63237°
Mean motion3.74936 °/min
BSTAR0.0019029
Orbital period96.02 mins
Loading maneuver chart data...
Loading historical data...
Loading historical data...
Loading historical data...
Loading historical data...
Loading historical data...
Loading historical data...
Loading historical data...

SINOD-D 1 Visibility forecast

Observer location: undefined°, undefined

Span
Click to sort rows by Start time (UTC) header in descending order
Start Az.
Max El. time (UTC)
Max El. Az.
Max El.
End time (UTC)
End Az.
7 mins2024-12-26 16:20:23.831Z350.143° N2024-12-26 16:23:23.831Z40.533° NE28.729°2024-12-26 16:27:23.831Z113.931° SE
5 mins2024-12-26 18:00:23.831Z286.639° WNW2024-12-26 18:02:23.831Z248.165° W23.041°2024-12-26 18:05:23.831Z197.116° SSW
8 mins2024-12-27 07:57:23.831Z207.853° SW2024-12-27 08:01:23.831Z49.229° ENE43.824°2024-12-27 08:05:23.831Z33.193° NE
|